Showing default

FLOCK 4Q 30, 58286

Orbit data source: Space-Track

FLOCK 4Q 30, 58286 is a payload satellite owned by Planet (US) in SSO that was launched on Sat, 11 Nov 2023 UTC via an FALCON 9 launch vehicle from the Air Force Western Test Range (AFWTR). Payload-class satellites include a variety of spacecraft equipped with specific instruments for various scientific and technological missions. These include communications satellites like Starlink; space stations such as the ISS; scientific satellites like the Hubble; Earth observation satellites from companies like Planet Labs, Umbra, and HawkEye 360; GPS; miniature CubeSats for education and research; and military/defense satellites.

Loading next visibility...
Identifier
58286, 2023-174AG
Orbit
SSO
Country
Flag of USUS
Related business
Manufacturer
Planet
Mission
Operational Commercial Imaging
Bus & Motor
CUBESAT 3U, Unknown motor
Mass
5.7 kg wet, 5.7 kg dry
Launch date (UTC)
2023-11-11 (2 years ago)
Launch vehicle
FALCON 9
Launch site
Air Force Western Test Range (AFWTR)
Object type
Payload
Rocket body
Debris
Shape & HBR
Box + 2 Pan, 1.0 m
Radar Cross Section
0.072 m², Medium (>0.1 m² and < 1m²)

Expand to show TLE details & history
Last TLE update: 20 hours ago

TLE from 20 hours ago
0 FLOCK 4Q 30
1 58286U 23174AG  25302.47308271  .00032709  00000-0  78382-3 0  9992
2 58286  97.4110  23.9296 0007124 255.3546 104.6911 15.41327255110074
Epoch: 2025-10-29T11:21Z
TLE epoch observation values (Epoch: 2025-10-29T11:21:14.346Z)
Latitude
-0.00001°
Longitude
175.57411°
Altitude
446.546 km
Speed
7.644 km/s
True Right ascension
01h 35m 43s
True Declination
0° 00' 00"
Sunlit
Object was in full shadow at epoch
Visualization orbit readout
Latitude
Unknown
Longitude
Unknown
Altitude
Unknown
Speed
Unknown
Apparent Right ascension
Unknown
Apparent Declination
Unknown
Sunlit
N/A
Visualization observer readout
Local Sidereal Time
03:12:26
Azimuth
Unknown
Elevation
Unknown
Doppler factor
Unknown
Orbital elements
Apogee altitude
443.985 km
Perigee altitude
434.272 km
Semi-major axis
6,817.266 km
Eccentricity
0.00071
Inclination
97.411°
RAAN
23.9296°
Arg. of periapsis
255.3546°
True anomaly
104.77005°
Mean anomaly
104.6911°
Eccentric anomaly
104.73058°
Mean motion
3.85592 °/min
Orbital period
93.36 mins
BSTAR
0.00078382
Loading maneuver chart data...
Computing Atmospheric mass density...
Loading historical data...
Loading historical data...
Loading historical data...
Loading historical data...
Loading historical data...
Loading historical data...
Loading historical data...

Documentation

Showing up to 5 results
|